This is the latest recevied weather packets stored in our database for station/object W4SMH. If no packets are shown the sender has not sent any weather packets the latest 10 day(s).
| Time | Temp. | Humidity | Pressure | Rain* | Wind** | Luminosity | Snow |
|---|---|---|---|---|---|---|---|
| 1777485118 | 7.22° C | 86% | 1013.1 hPa | 0.25 mm | - | 190 W/m² | - |
| 1777484769 | 7.22° C | 85% | 1013.2 hPa | 0.25 mm | - | 209 W/m² | - |
| 1777484746 | 7.22° C | 86% | 1013.2 hPa | 0.25 mm | - | 218 W/m² | - |
| 1777484016 | 7.22° C | 85% | 1013.2 hPa | 0 mm | - | 195 W/m² | - |
| 1777483959 | 7.22° C | 84% | 1013.2 hPa | 0 mm | - | 176 W/m² | - |
| 1777483828 | 7.22° C | 84% | 1013.2 hPa | 0 mm | - | 120 W/m² | - |
| 1777483391 | 7.22° C | 84% | 1013.3 hPa | 0 mm | - | 84 W/m² | - |
| 1777482848 | 7.22° C | 83% | 1013.2 hPa | 0 mm | - | 72 W/m² | - |
| 1777482556 | 7.22° C | 83% | 1013.2 hPa | 0 mm | - | 69 W/m² | - |
| 1777482448 | 7.22° C | 82% | 1013.2 hPa | 0 mm | - | 63 W/m² | - |
| 1777480928 | 7.78° C | 82% | 1013.2 hPa | 0 mm | - | 42 W/m² | - |
| 1777480716 | 7.78° C | 82% | 1013.2 hPa | 0 mm | - | 44 W/m² | - |
| 1777480205 | 7.78° C | 82% | 1013.1 hPa | 0 mm | - | 47 W/m² | - |
| 1777480177 | 7.78° C | 82% | 1013.2 hPa | 0 mm | - | 47 W/m² | - |
| 1777479933 | 7.78° C | 82% | 1013.3 hPa | 0 mm | - | 51 W/m² | - |
| 1777479850 | 7.78° C | 82% | 1013.2 hPa | 0 mm | - | 51 W/m² | - |
| 1777479610 | 7.78° C | 83% | 1013.2 hPa | 0 mm | - | 49 W/m² | - |
| 1777479342 | 7.78° C | 83% | 1013.1 hPa | 0 mm | - | 47 W/m² | - |
| 1777479025 | 7.78° C | 82% | 1013.1 hPa | 0 mm | - | 56 W/m² | - |
| 1777478813 | 7.78° C | 82% | 1013 hPa | 0 mm | - | 62 W/m² | - |
| 1777478615 | 7.78° C | 82% | 1013 hPa | 0 mm | - | 62 W/m² | - |
| 1777477967 | 8.33° C | 82% | 1012.8 hPa | 0 mm | - | 116 W/m² | - |
| 1777477775 | 8.33° C | 82% | 1012.8 hPa | 0 mm | - | 113 W/m² | - |
| 1777477591 | 8.33° C | 83% | 1012.9 hPa | 0 mm | - | 107 W/m² | - |
| 1777476514 | 8.33° C | 84% | 1012.9 hPa | 0 mm | - | 104 W/m² | - |
* Rain latest hour (hover to see other rain measurements)
** Current wind speed in m/s (hover to see current wind gust speed)